Location: Beekmeers
(50.8953°N, 3.6968°E)
Time: 17:37:11
(UTC+00:00)

H-2A R/B - Pass Details

Date: 16 August 2024
Orbit: 566 x 633 km, 98.4° (Epoch: 06 September)

Event Time Altitude Azimuth Distance (km) Brightness Sun altitude
Rises 00:58:43 0° 8° (N) 2,862 6.8 -23.7°
Reaches altitude 10° 01:00:58 10° 1° (N) 1,966 5.6 -23.6°
Maximum altitude 01:04:56 38° 294° (WNW) 942 2.9 -23.4°
Enters shadow 01:05:12 38° 284° (WNW) 950 2.9 -23.4°
